This is the latest recevied weather packets stored in our database for station/object AC4AG. If no packets are shown the sender has not sent any weather packets the latest 1 day(s).
| Time | Temp. | Humidity | Pressure | Rain* | Wind** | Luminosity | Snow |
|---|---|---|---|---|---|---|---|
| 1778001270 | 20° C | 62% | 1012 hPa | 0 mm | 5.81 m/s, 208° | 477 W/m² | - |
| 1778000966 | 20° C | 63% | 1011.9 hPa | 0 mm | 2.68 m/s, 210° | 430 W/m² | - |
| 1778000663 | 20° C | 63% | 1011.9 hPa | 0 mm | 4.02 m/s, 219° | 368 W/m² | - |
| 1778000358 | 19.44° C | 63% | 1012.2 hPa | 0 mm | 4.02 m/s, 189° | 340 W/m² | - |
| 1778000054 | 20° C | 62% | 1012.3 hPa | 0 mm | 3.13 m/s, 208° | 311 W/m² | - |
| 1777999749 | 20° C | 64% | 1012.5 hPa | 0 mm | 1.79 m/s, 205° | 298 W/m² | - |
| 1777999447 | 20° C | 64% | 1012.4 hPa | 0 mm | 1.34 m/s, 220° | 334 W/m² | - |
| 1777999145 | 20° C | 64% | 1012.4 hPa | 0 mm | 1.79 m/s, 200° | 328 W/m² | - |
| 1777998843 | 20° C | 63% | 1012.5 hPa | 0 mm | 2.68 m/s, 197° | 344 W/m² | - |
| 1777998542 | 20° C | 63% | 1012.4 hPa | 0 mm | 4.02 m/s, 181° | 356 W/m² | - |
| 1777998237 | 20° C | 63% | 1012.5 hPa | 0 mm | 3.13 m/s, 230° | 368 W/m² | - |
| 1777997934 | 20° C | 61% | 1012.5 hPa | 0 mm | 5.36 m/s, 177° | 358 W/m² | - |
| 1777997631 | 20° C | 63% | 1012.6 hPa | 0 mm | 1.34 m/s, 176° | 437 W/m² | - |
| 1777997328 | 20° C | 65% | 1012.6 hPa | 0 mm | 2.24 m/s, 197° | 484 W/m² | - |
| 1777997027 | 19.44° C | 63% | 1012.9 hPa | 0 mm | 4.02 m/s, 169° | 457 W/m² | - |
| 1777996723 | 19.44° C | 65% | 1013 hPa | 0 mm | 1.34 m/s, 190° | 406 W/m² | - |
| 1777996418 | 19.44° C | 65% | 1012.7 hPa | 0 mm | 2.24 m/s, 187° | 386 W/m² | - |
| 1777996116 | 19.44° C | 63% | 1013 hPa | 0 mm | 1.79 m/s, 135° | 381 W/m² | - |
| 1777995812 | 19.44° C | 64% | 1012.9 hPa | 0 mm | 2.24 m/s, 201° | 413 W/m² | - |
| 1777995508 | 19.44° C | 63% | 1013 hPa | 0 mm | 3.13 m/s, 216° | 399 W/m² | - |
| 1777995205 | 19.44° C | 65% | 1012.7 hPa | 0 mm | 1.34 m/s, 180° | 408 W/m² | - |
| 1777994902 | 19.44° C | 63% | 1012.7 hPa | 0 mm | 3.13 m/s, 206° | 395 W/m² | - |
| 1777994600 | 19.44° C | 64% | 1012.6 hPa | 0 mm | 2.24 m/s, 200° | 396 W/m² | - |
| 1777994299 | 18.89° C | 65% | 1012.5 hPa | 0 mm | 2.24 m/s, 165° | 429 W/m² | - |
| 1777993997 | 18.89° C | 64% | 1012.7 hPa | 0 mm | 1.34 m/s, 183° | 369 W/m² | - |
* Rain latest hour (hover to see other rain measurements)
** Current wind speed in m/s (hover to see current wind gust speed)